Panama City Tyndall AFB, FL

3:26 AM CST on November 18, 2017 (GMT -0600)
Tyndall Air Force Base

Weather History for KPAM - April, 2013

Change the Weather History Date:

Saturday, April 27, 2013

  Actual Average Record
Temperature  
Mean Temperature 70 °F -  
Max Temperature 80 °F 76 °F 84 °F (2002)
Min Temperature 61 °F 60 °F 51 °F (2001)
Cooling Degree Days 6    
Growing Degree Days 20 (Base 50)    
Moisture  
Dew Point 66 °F    
Average Humidity 95    
Maximum Humidity 100    
Minimum Humidity 72    
Precipitation  
Precipitation 0.00 in - - ()
Sea Level Pressure  
Sea Level Pressure 30.17 in    
Wind  
Wind Speed 7 mph (ESE)    
Max Wind Speed 18 mph    
Max Gust Speed 23 mph    
Visibility 9 miles    
Events      
Averages and records for this station are not official NWS values.
T = Trace of Precipitation, MM = Missing Value Source: NWS Daily Summary

Daily Weather History Graph

Daily Weather History Graph

Search for Another Location

Airport or City:

Trip Planner

Search our weather history database for the weather conditions in past years. The results will help you decide how hot, cold, wet, or windy it might be!

Date:

Astronomy

Apr. 27, 2013 Rise Set
Actual Time 6:02 AM CDT 7:17 PM CDT
Civil Twilight 5:37 AM CDT 7:42 PM CDT
Nautical Twilight 5:07 AM CDT 8:12 PM CDT
Astronomical Twilight 4:36 AM CDT 8:43 PM CDT
Moon 9:38 PM CDT (4/27) 7:27 AM CDT (4/27)
Length of Visible Light 14h 04m
Length of Day
13h 14m
Waning Gibbous, 95% of the Moon is Illuminated
Apr 27
Waning Gibbous
May 2
Last Quarter
May 9
New
May 17
First Quarter
May 24
Full

Hourly Weather History & Observations

Time (CDT) Temp. Heat Index Dew Point Humidity Pressure Visibility Wind Dir Wind Speed Gust Speed Precip Events Conditions
12:58 AM 61.5 °F - 61.5 °F 100% 30.23 in 10.0 mi NNE 3.5 mph - 0.00 in   Light Drizzle
1:58 AM 63.3 °F - 63.3 °F 100% 30.22 in 10.0 mi ENE 8.1 mph - 0.00 in   Light Drizzle
2:58 AM 62.2 °F - 62.2 °F 100% 30.21 in 10.0 mi East 3.5 mph - 0.00 in   Light Drizzle
3:48 AM 62.6 °F - 62.6 °F 100% 30.20 in 10.0 mi ENE 6.9 mph - N/A   Light Drizzle
3:58 AM 62.8 °F - 62.8 °F 100% 30.21 in 10.0 mi ENE 5.8 mph - 0.00 in   Light Drizzle
4:03 AM 62.6 °F - 62.6 °F 100% 30.20 in 10.0 mi ENE 5.8 mph - N/A   Light Drizzle
4:08 AM 62.6 °F - 62.6 °F 100% 30.20 in 10.0 mi ENE 4.6 mph - N/A   Light Drizzle
4:13 AM 62.6 °F - 62.6 °F 100% 30.20 in 10.0 mi ENE 6.9 mph - N/A   Light Drizzle
4:38 AM 64.4 °F - 64.4 °F 100% 30.20 in 10.0 mi ENE 5.8 mph - N/A   Light Drizzle
4:53 AM 64.4 °F - 64.4 °F 100% 30.20 in 10.0 mi East 5.8 mph - N/A   Light Drizzle
4:58 AM 64.0 °F - 64.0 °F 100% 30.21 in 10.0 mi East 6.9 mph - 0.00 in   Light Drizzle
5:18 AM 62.6 °F - 62.6 °F 100% 30.19 in 10.0 mi East 5.8 mph - N/A   Light Drizzle
5:58 AM 62.6 °F - 62.6 °F 100% 30.20 in 10.0 mi East 8.1 mph - 0.00 in   Light Drizzle
6:58 AM 62.8 °F - 62.4 °F 99% 30.22 in 10.0 mi ENE 6.9 mph - 0.00 in   Light Drizzle
7:58 AM 65.1 °F - 63.5 °F 94% 30.23 in 10.0 mi East 8.1 mph - 0.00 in   Light Drizzle
8:58 AM 69.8 °F - 66.4 °F 89% 30.21 in 10.0 mi ESE 12.7 mph 17.3 mph 0.00 in   Clear
9:58 AM 75.0 °F - 69.1 °F 82% 30.23 in 10.0 mi East 11.5 mph - N/A   Clear
10:58 AM 80.1 °F 83.3 °F 70.2 °F 72% 30.22 in 10.0 mi SE 13.8 mph 18.4 mph 0.00 in   Drizzle
11:58 AM 79.9 °F - 72.7 °F 79% 30.21 in 10.0 mi South 15.0 mph - 0.00 in   Light Drizzle
12:58 PM 79.7 °F - 72.1 °F 78% 30.20 in 10.0 mi South 15.0 mph - 0.00 in   Light Drizzle
1:58 PM 79.2 °F - 72.7 °F 80% 30.19 in 10.0 mi South 17.3 mph - 0.00 in   Light Drizzle
2:58 PM 79.0 °F - 72.7 °F 81% 30.16 in 10.0 mi South 17.3 mph - 0.00 in   Light Drizzle
3:58 PM 77.9 °F - 73.4 °F 86% 30.14 in 10.0 mi South 18.4 mph 23.0 mph 0.00 in   Drizzle
4:58 PM 76.5 °F - 72.7 °F 88% 30.13 in 10.0 mi South 16.1 mph - 0.00 in   Drizzle
5:58 PM 74.7 °F - 72.9 °F 94% 30.13 in 10.0 mi South 12.7 mph - 0.00 in   Light Drizzle
6:58 PM 71.8 °F - 71.8 °F 100% 30.13 in 10.0 mi South 12.7 mph - 0.00 in   Clear
7:58 PM 70.3 °F - 70.3 °F 100% 30.14 in 10.0 mi South 6.9 mph - N/A   Clear
8:58 PM 69.1 °F - 69.1 °F 100% 30.14 in 10.0 mi South 4.6 mph - N/A   Clear
9:58 PM 66.4 °F - 66.4 °F 100% 30.14 in 8.0 mi Calm Calm - N/A   Clear
10:08 PM 66.2 °F - 66.2 °F 100% 30.13 in 10.0 mi East 1.2 mph - N/A   Clear
10:43 PM 66.2 °F - 66.2 °F 100% 30.12 in 8.0 mi Calm Calm - N/A   Partly Cloudy
10:48 PM 66.2 °F - 66.2 °F 100% 30.12 in 6.0 mi Calm Calm - N/A   Partly Cloudy
10:58 PM 65.5 °F - 65.5 °F 100% 30.12 in 7.0 mi Calm Calm - N/A   Partly Cloudy
11:08 PM 66.2 °F - 66.2 °F 100% 30.10 in 8.0 mi Calm Calm - N/A   Partly Cloudy
11:28 PM 66.2 °F - 66.2 °F 100% 30.10 in 10.0 mi Calm Calm - N/A   Clear
11:43 PM 66.2 °F - 66.2 °F 100% 30.10 in 1.8 mi Calm Calm - N/A   Clear
11:48 PM 64.4 °F - 64.4 °F 100% 30.10 in 1.2 mi ESE 4.6 mph - N/A   Clear
11:53 PM 64.4 °F - 64.4 °F 100% 30.11 in 3.0 mi East 4.6 mph - N/A   Clear
11:58 PM 64.0 °F - 64.0 °F 100% 30.12 in 6.0 mi ESE 3.5 mph - N/A   Clear